#timestamp,LO_Frequency,Hit,StdDev 
1594519215.9,286047005.8,Y
1594519235.7,286047002.1,P
1594519255.6,286046999.8,P
1594519275.4,286047000.5,N
1594519295.2,286047000.4,N
1594519315.1,286047000.0,N
1594519316.0,286047000.0,N
1594519335.8,286047000.0,N
1594519355.7,286047000.5,N
1594519375.5,286046999.9,N
1594519395.3,286047000.1,N
1594519415.2,286046999.8,N
1594519435.0,286046999.7,N
1594519435.9,286046999.7,N
1594519455.8,286047002.4,Y
1594519475.6,286047004.3,P
1594519495.4,286047004.2,N
1594519515.3,286047004.0,N
1594519535.1,286047003.9,N
1594519555.8,286047004.2,N
1594519575.7,286047003.2,N
1594519595.5,286047005.9,Y
1594519615.4,286047002.6,P
1594519635.2,286047001.7,P
1594519655.0,286047004.4,P
1594519655.9,286047004.4,Y
1594519675.8,286047000.5,P
1594519695.6,286047000.2,N
1594519715.5,286046998.3,N
1594519735.3,286047001.2,N
1594519755.1,286047001.2,N
1594519775.9,286046998.2,N
1594519795.7,286047002.6,N
1594519815.6,286047001.7,N
1594519835.4,286047002.6,N
1594519855.2,286047002.7,N
1594519875.1,286047000.7,N
1594519876.0,286047000.7,N
1594519895.8,286046998.8,N
1594519915.6,286047000.0,N
1594519935.5,286047000.7,N
1594519955.3,286047002.6,N
1594519975.2,286047002.8,N
1594519995.0,286047001.5,N
1594519995.9,286047001.5,N
1594520015.7,286047003.6,N
1594520035.6,286047006.0,Y
1594520055.4,286047003.3,P
1594520075.3,286047005.6,P
1594520095.1,286047006.0,P
1594520115.8,286047001.9,N
1594520135.7,286047002.2,N
1594520155.5,286047003.9,N
1594520175.4,286047001.3,N
1594520195.2,286047003.3,N
1594520215.0,286047004.1,N
1594520215.9,286047004.1,N
1594520235.8,286047005.8,Y
1594520255.6,286047003.9,P
1594520275.4,286047007.6,P
1594520295.3,286047006.5,P
1594520315.1,286047008.3,Y
1594520335.9,286047003.7,P
1594520355.7,286047003.1,P
1594520375.5,286047003.5,P
1594520395.4,286047001.8,N
1594520415.2,286047001.4,N
1594520435.0,286047001.5,N
1594520436.0,286047001.5,N
1594520455.8,286047003.8,N
1594520475.6,286047004.1,Y
1594520495.5,286047001.2,P
1594520515.3,286047001.9,N
1594520535.1,286047001.3,N
1594520555.9,286047001.7,N
1594520575.7,286047002.5,Y
1594520595.6,286047000.8,P
1594520615.4,286046998.6,N
1594520635.2,286047000.7,N
1594520655.1,286047000.8,N
1594520656.0,286047000.8,N
1594520675.8,286046998.3,N
1594520695.6,286046999.5,N
1594520715.5,286046998.8,N
1594520735.3,286046998.7,N
1594520755.2,286046998.6,N
1594520775.0,286046998.4,N
1594520775.9,286046998.4,N
1594520795.7,286046998.7,N
1594520815.6,286047001.2,N
1594520835.4,286046999.5,N
1594520855.3,286047002.5,N
1594520875.1,286047000.2,N
1594520876.0,286047000.2,N
1594520895.8,286046998.2,N
1594520915.7,286046998.5,N
1594520935.5,286047001.2,N
1594520955.4,286046999.3,N
1594520975.2,286046996.5,N
1594520995.0,286046998.9,N
1594520995.9,286046998.9,N
1594521015.8,286046999.2,N
1594521035.6,286046996.9,N
1594521055.4,286046998.6,N
1594521075.3,286047000.6,N
1594521095.1,286046996.6,N
1594521115.9,286046997.2,N
1594521135.7,286046997.5,N
1594521155.5,286046995.3,Y
1594521175.4,286046995.5,P
1594521195.2,286046995.2,N
1594521215.1,286046995.2,N
1594521216.0,286046995.2,N
1594521235.8,286046995.8,N
1594521255.6,286046998.0,N
1594521275.5,286046997.5,N
1594521295.3,286046997.8,N
1594521315.2,286046996.6,N
1594521335.9,286046995.1,Y
1594521355.7,286047000.6,P
1594521375.6,286047000.0,N
1594521395.4,286047002.5,N
1594521415.2,286047002.4,N
1594521435.1,286046999.8,N
1594521436.0,286046999.8,N
1594521455.8,286047002.2,N
1594521475.7,286047002.4,N
1594521495.5,286047002.2,N
1594521515.3,286047002.2,N
1594521535.2,286047001.3,N
1594521555.0,286047004.4,N
1594521555.9,286047004.4,N
1594521575.8,286047001.7,N
1594521595.6,286047002.0,N
1594521615.4,286047001.4,N
1594521635.3,286047003.3,N
1594521655.1,286047005.3,N
1594521675.9,286047007.3,Y
1594521695.7,286047003.3,P
1594521715.5,286047003.2,P
1594521735.4,286047005.6,P
1594521755.2,286047004.8,Y
1594521775.1,286047002.0,P
1594521776.0,286047002.0,N
1594521795.8,286046999.8,N
1594521815.6,286047002.8,N
1594521835.5,286047000.5,N
1594521855.3,286047000.1,N
1594521875.1,286047002.4,N
1594521895.9,286047004.3,Y
1594521915